Location: ASU Dark Sky Observatory
(36.2504°N, 81.4125°W)
Time: 16:52:48
(UTC-04:00)

Amateur Radio Satellites - All Passes

Search period start: 26 March 2017 16:22
Search period end: 27 March 2017 16:22
Location: ASU Dark Sky Observatory, 36.2504°N, 81.4125°W

Satellite Date Start Highest point End Downlink Frequencies (MHz)
Time Altitude Azimuth
SO-50 26 Mar 16:28:21 16:32:20 27° 308° (NW) 16:36:17 436.795
AO-7 26 Mar 16:51:32 16:59:32 51° 258° (WSW) 17:07:35 .
CUBESAT XI-V 26 Mar 16:59:57 17:02:05 13° 92° (E) 17:04:15 437.345
RS-15 26 Mar 17:08:42 17:16:52 19° 338° (NNW) 17:25:07 29.354- 29.394
KKS-1 26 Mar 17:25:07 17:29:09 32° 98° (E) 17:33:08 437.445
ITAMSAT 1 26 Mar 17:25:42 17:28:08 13° 268° (W) 17:30:35 435.822/435.867
BEESAT 26 Mar 17:26:34 17:30:06 21° 293° (WNW) 17:33:37 436.000
O/OREOS (USA 219) 26 Mar 17:26:54 17:31:20 59° 107° (ESE) 17:35:49 437.305
CUTE-I 26 Mar 17:35:14 17:37:49 14° 62° (ENE) 17:40:24 437.470
ITUPSAT 1 26 Mar 17:43:30 17:46:09 15° 295° (WNW) 17:48:47 437.325
MOZHAYETS 4 26 Mar 17:43:37 17:47:34 30° 289° (WNW) 17:51:30
XW-2D 26 Mar 17:49:23 17:51:11 13° 68° (ENE) 17:52:59 145.860 - 145.880
XW-2B 26 Mar 17:54:55 17:57:05 15° 68° (ENE) 17:59:15 145.730 - 145.750
KAITUO 1B 26 Mar 17:56:36 17:58:06 12° 67° (ENE) 17:59:36 145.475/437.950
STARS 26 Mar 18:01:24 18:05:28 34° 98° (E) 18:09:27 437.465
XW-2C 26 Mar 18:04:24 18:07:11 20° 70° (ENE) 18:09:58 145.795 - 145.815
DOVE 4 26 Mar 18:30:25 18:34:58 62° 75° (ENE) 18:39:50 437.250
CUBESAT XI-V 26 Mar 18:35:12 18:39:43 53° 286° (WNW) 18:44:15 437.345
XW-2F 26 Mar 18:55:11 18:59:00 89° 74° (ENE) 19:02:47 145.980 - 146.000
HO-68 26 Mar 18:56:00 19:01:33 25° 62° (ENE) 19:07:06 435.675
LilacSat-2 26 Mar 18:56:35 19:00:25 80° 260° (W) 19:04:15 437.200
KKS-1 26 Mar 19:02:09 19:05:28 21° 292° (WNW) 19:08:46 437.445
O/OREOS (USA 219) 26 Mar 19:09:06 19:11:08 13° 304° (NW) 19:13:10 437.305
CUTE-I 26 Mar 19:11:50 19:17:12 72° 259° (WSW) 19:22:35 437.470
NUDT-PHONESAT 26 Mar 19:20:45 19:24:23 48° 260° (W) 19:28:01 437.300
YUBILEINY 26 Mar 19:21:25 19:29:53 54° 78° (ENE) 19:38:20 435.215
XW-2D 26 Mar 19:21:29 19:25:01 36° 262° (W) 19:28:34 145.860 - 145.880
PCSat 26 Mar 19:25:58 19:31:09 43° 58° (ENE) 19:36:17 145.827
XW-2B 26 Mar 19:27:33 19:30:59 32° 262° (W) 19:34:24 145.730 - 145.750
KAITUO 1B 26 Mar 19:28:14 19:31:45 38° 262° (W) 19:35:16 145.475/437.950
RS-15 26 Mar 19:28:56 19:36:32 18° 16° (NNE) 19:44:01 29.354- 29.394
STRAND 1 26 Mar 19:30:10 19:31:25 11° 91° (E) 19:32:41 437.568
XW-2A 26 Mar 19:32:29 19:35:31 29° 73° (ENE) 19:38:33 145.665 - 145.685
XW-2C 26 Mar 19:38:08 19:41:13 23° 264° (W) 19:44:19 145.795 - 145.815
STARS 26 Mar 19:38:26 19:41:31 19° 293° (WNW) 19:44:34 437.465
CUBEBUG 2 26 Mar 19:40:36 19:43:38 17° 67° (ENE) 19:46:40 437.445
SEEDS 26 Mar 19:50:05 19:53:34 26° 71° (ENE) 19:57:03 437.485
CUTE 1.7 + AOD 2 26 Mar 19:56:24 20:00:28 50° 74° (ENE) 20:04:32 437.475
M-CUBED/EXP-1 PRIME 26 Mar 19:56:50 20:01:31 84° 106° (ESE) 20:06:11 437.505
DOVE 4 26 Mar 20:11:44 20:13:09 11° 271° (W) 20:14:35 437.250
AO-73 26 Mar 20:17:09 20:19:05 13° 66° (ENE) 20:21:01 145.935
AO-85 26 Mar 20:30:27 20:33:28 18° 111° (ESE) 20:36:21 145.980
UWE-3 26 Mar 20:41:29 20:45:56 46° 74° (ENE) 20:50:21 435.000/436.395/437.385
HO-68 26 Mar 20:41:46 20:48:45 58° 258° (WSW) 20:55:48 435.675
STRAND 1 26 Mar 21:05:57 21:11:04 72° 285° (WNW) 21:16:07 437.568
XW-2A 26 Mar 21:06:51 21:08:19 12° 267° (W) 21:09:49 145.665 - 145.685
AAUSAT CUBESAT 2 26 Mar 21:08:57 21:13:02 72° 260° (W) 21:17:08 437.432
PCSat 26 Mar 21:10:05 21:14:12 22° 254° (WSW) 21:18:19 145.827
Oscar 11 26 Mar 21:14:43 21:18:50 45° 74° (ENE) 21:22:57 .
Tancredo 1 26 Mar 21:14:45 21:17:54 79° 320° (NW) 21:21:04 437.200
ISS 26 Mar 21:15:12 21:18:27 89° 139° (SE) 21:21:43 437.550
CUBEBUG 2 26 Mar 21:15:17 21:19:51 45° 262° (W) 21:24:24 437.445
YUBILEINY 26 Mar 21:19:04 21:26:08 29° 276° (W) 21:33:14 435.215
ZACube-1 26 Mar 21:21:54 21:26:27 76° 77° (ENE) 21:30:58 437.345
SEEDS 26 Mar 21:26:03 21:29:12 21° 265° (W) 21:32:22 437.485
M-CUBED/EXP-1 PRIME 26 Mar 21:34:21 21:35:15 11° 302° (WNW) 21:36:10 437.505
CUTE 1.7 + AOD 2 26 Mar 21:35:21 21:36:32 11° 269° (W) 21:37:45 437.475
RS-15 26 Mar 21:41:55 21:53:35 45° 48° (NE) 22:04:42 29.354- 29.394
AO-73 26 Mar 21:50:21 21:54:49 56° 260° (W) 21:59:15 145.935
AO-85 26 Mar 22:09:26 22:13:36 38° 303° (WNW) 22:17:33 145.980
UWE-3 26 Mar 22:19:50 22:22:33 15° 268° (W) 22:25:14 435.000/436.395/437.385
PRISM 26 Mar 22:20:29 22:23:52 24° 96° (E) 22:27:14 437.425
DELFI C3 26 Mar 22:26:59 22:30:53 84° 258° (WSW) 22:34:49 145.870
FO-29 26 Mar 22:43:21 22:46:16 14° 89° (E) 22:49:03 435.910
BEESAT 3 26 Mar 22:45:47 22:49:32 47° 115° (ESE) 22:53:20 437.485
Oscar 11 26 Mar 22:53:10 22:55:09 13° 268° (W) 22:57:09 .
Tancredo 1 26 Mar 22:53:10 22:54:29 12° 336° (NNW) 22:55:47 437.200
ISS 26 Mar 22:53:35 22:55:19 13° 335° (NNW) 22:57:03 437.550
TIGRISAT 26 Mar 23:02:01 23:05:59 33° 97° (E) 23:09:50 435.000
BEESAT 2 26 Mar 23:02:22 23:05:40 26° 112° (ESE) 23:09:01 435.950
UNISAT 6 26 Mar 23:12:02 23:16:17 47° 99° (E) 23:20:25 437.425
SO-50 26 Mar 23:22:16 23:24:53 15° 46° (NE) 23:27:28 436.795
ESTCUBE 1 26 Mar 23:35:32 23:39:34 34° 71° (ENE) 23:43:38 437.505/2401.250
RS-15 26 Mar 23:54:39 00:06:18 55° 250° (WSW) 00:17:24 29.354- 29.394
SPROUT 26 Mar 23:55:03 23:57:14 14° 66° (ENE) 23:59:26 437.525
PRISM 26 Mar 23:55:41 23:59:02 24° 290° (WNW) 00:02:22 437.425
LO-87 26 Mar 23:57:30 00:01:01 56° 259° (W) 00:04:36 145.935 - 145.965
POLYITAN 1 27 Mar 00:08:47 00:10:57 14° 93° (E) 00:13:07 437.675
QB50P2 27 Mar 00:12:53 00:15:40 17° 94° (E) 00:18:26 145.880/145.840
DUCHIFAT 1 27 Mar 00:24:35 00:27:25 17° 94° (E) 00:30:13 145.980
DX 1 27 Mar 00:24:52 00:27:12 14° 65° (ENE) 00:29:33 434.975-435.025
BEESAT 3 27 Mar 00:25:11 00:27:23 14° 312° (NW) 00:29:36 437.485
FO-29 27 Mar 00:26:10 00:32:00 61° 287° (WNW) 00:37:16 435.910
TIGRISAT 27 Mar 00:39:19 00:42:23 19° 293° (WNW) 00:45:24 435.000
AIST 2D 27 Mar 00:39:58 00:43:26 67° 101° (E) 00:46:53 435.315
BEESAT 2 27 Mar 00:40:12 00:43:23 23° 308° (NW) 00:46:37 435.950
VELOX 1 27 Mar 00:46:27 00:50:47 65° 75° (ENE) 00:55:11 145.980
UNISAT 6 27 Mar 00:50:21 00:52:32 14° 295° (WNW) 00:54:41 437.425
50 SAT 27 Mar 00:52:22 00:55:36 41° 74° (ENE) 00:58:53 437.505
SO-50 27 Mar 01:01:16 01:05:43 61° 243° (WSW) 01:10:08 436.795
UKube-1 27 Mar 01:02:54 01:06:30 26° 69° (ENE) 01:10:06 .
NANOSAT C BR1 27 Mar 01:09:41 01:13:54 70° 102° (ESE) 01:18:04 145.865
ESTCUBE 1 27 Mar 01:13:19 01:16:26 18° 266° (W) 01:19:33 437.505/2401.250
EO-79 27 Mar 01:14:27 01:18:42 89° 110° (ESE) 01:22:54 145.935-145.965
SPROUT 27 Mar 01:28:35 01:32:42 46° 261° (W) 01:36:52 437.525
POLYITAN 1 27 Mar 01:42:55 01:46:54 41° 287° (WNW) 01:50:50 437.675
QB50P2 27 Mar 01:47:42 01:51:31 33° 288° (WNW) 01:55:18 145.880/145.840
DX 1 27 Mar 01:58:49 02:02:58 45° 260° (W) 02:07:09 434.975-435.025
DUCHIFAT 1 27 Mar 01:59:23 02:03:08 32° 288° (WNW) 02:06:51 145.980
Oscar 19 27 Mar 02:11:17 02:15:44 28° 97° (E) 02:20:10 437.125/150
BUGSAT 1 27 Mar 02:13:41 02:17:51 71° 283° (WNW) 02:21:56 437.445
Gurwin Techsat 1B 27 Mar 02:28:47 02:33:01 24° 95° (E) 02:37:13 435.225
UKube-1 27 Mar 02:39:03 02:42:27 23° 264° (W) 02:45:52 .
BEESAT 27 Mar 02:52:04 02:56:15 31° 70° (ENE) 03:00:27 436.000
MOZHAYETS 4 27 Mar 03:06:52 03:09:47 17° 67° (ENE) 03:12:42
ITUPSAT 1 27 Mar 03:08:09 03:12:42 45° 72° (ENE) 03:17:16 437.325
O/OREOS (USA 219) 27 Mar 03:39:24 03:44:01 74° 69° (ENE) 03:48:35 437.305
Tancredo 1 27 Mar 03:43:25 03:46:23 35° 36° (NE) 03:49:21 437.200
ISS 27 Mar 03:45:16 03:48:18 33° 35° (NE) 03:51:20 437.550
Oscar 19 27 Mar 03:50:30 03:54:58 30° 291° (WNW) 03:59:25 437.125/150
ITAMSAT 1 27 Mar 03:59:11 04:03:35 27° 96° (E) 04:07:56 435.822/435.867
Gurwin Techsat 1B 27 Mar 04:08:08 04:13:00 37° 290° (WNW) 04:17:51 435.225
KKS-1 27 Mar 04:20:57 04:24:24 22° 68° (ENE) 04:27:51 437.445
BEESAT 27 Mar 04:30:11 04:34:00 24° 264° (W) 04:37:50 436.000
MOZHAYETS 4 27 Mar 04:42:13 04:46:35 42° 261° (W) 04:50:56
ITUPSAT 1 27 Mar 04:47:44 04:50:42 16° 267° (W) 04:53:40 437.325
AO-7 27 Mar 04:55:38 05:03:54 66° 105° (ESE) 05:12:07 .
STARS 27 Mar 04:55:43 04:59:12 23° 69° (ENE) 05:02:41 437.465
Tancredo 1 27 Mar 05:20:02 05:22:19 18° 230° (SW) 05:24:36 437.200
ISS 27 Mar 05:22:04 05:24:37 21° 230° (SW) 05:27:10 437.550
CUBESAT XI-V 27 Mar 05:35:26 05:40:00 75° 259° (W) 05:44:36 437.345
ITAMSAT 1 27 Mar 05:38:26 05:42:59 31° 291° (WNW) 05:47:30 435.822/435.867
KKS-1 27 Mar 05:56:52 06:00:46 29° 263° (W) 06:04:41 437.445
STARS 27 Mar 06:31:35 06:35:22 28° 263° (W) 06:39:11 437.465
DOVE 4 27 Mar 06:32:20 06:36:35 24° 94° (E) 06:40:44 437.250
XW-2F 27 Mar 06:32:34 06:33:18 10° 92° (E) 06:34:03 145.980 - 146.000
LilacSat-2 27 Mar 06:34:06 06:35:47 13° 93° (E) 06:37:27 437.200
M-CUBED/EXP-1 PRIME 27 Mar 06:40:32 06:44:07 62° 71° (ENE) 06:48:02 437.505
AO-85 27 Mar 06:42:33 06:46:30 77° 61° (ENE) 06:50:35 145.980
STRAND 1 27 Mar 06:43:04 06:45:35 14° 63° (ENE) 06:48:05 437.568
AO-7 27 Mar 06:49:30 06:55:59 26° 302° (WNW) 07:02:27 .
NUDT-PHONESAT 27 Mar 06:54:42 06:57:11 17° 94° (E) 06:59:39 437.300
XW-2D 27 Mar 06:56:45 06:59:51 24° 96° (E) 07:02:57 145.860 - 145.880
KAITUO 1B 27 Mar 07:02:21 07:05:16 22° 96° (E) 07:08:10 145.475/437.950
XW-2B 27 Mar 07:02:34 07:05:50 28° 97° (E) 07:09:05 145.730 - 145.750
BEESAT 3 27 Mar 07:06:02 07:08:17 14° 48° (NE) 07:10:31 437.485
XW-2C 27 Mar 07:12:34 07:16:06 39° 98° (E) 07:19:37 145.795 - 145.815
NO-84 27 Mar 07:24:35 07:27:26 57° 315° (NW) 07:30:15 435.350 FM
CUTE-I 27 Mar 07:31:37 07:36:53 57° 101° (E) 07:42:07 437.470
CUTE 1.7 + AOD 2 27 Mar 07:46:37 07:47:18 10° 91° (E) 07:47:59 437.475
XW-2F 27 Mar 08:04:07 08:07:37 40° 286° (WNW) 08:11:07 145.980 - 146.000
LilacSat-2 27 Mar 08:06:44 08:10:10 34° 287° (WNW) 08:13:35 437.200
DOVE 4 27 Mar 08:09:26 08:14:16 37° 289° (WNW) 08:19:01 437.250
HO-68 27 Mar 08:12:36 08:18:54 32° 97° (E) 08:25:09 435.675
YUBILEINY 27 Mar 08:18:31 08:27:09 68° 93° (E) 08:35:46 435.215
STRAND 1 27 Mar 08:19:02 08:24:08 67° 258° (WSW) 08:29:17 437.568
NUDT-PHONESAT 27 Mar 08:28:04 08:31:04 24° 289° (WNW) 08:34:02 437.300
XW-2A 27 Mar 08:29:15 08:32:29 43° 99° (E) 08:35:42 145.665 - 145.685
XW-2D 27 Mar 08:31:17 08:33:52 18° 290° (WNW) 08:36:26 145.860 - 145.880
KAITUO 1B 27 Mar 08:36:28 08:39:08 19° 290° (WNW) 08:41:48 145.475/437.950
XW-2B 27 Mar 08:37:28 08:39:47 16° 291° (WNW) 08:42:05 145.730 - 145.750
BEESAT 3 27 Mar 08:42:16 08:46:10 49° 244° (WSW) 08:49:59 437.485
XW-2C 27 Mar 08:48:30 08:49:54 12° 293° (WNW) 08:51:18 145.795 - 145.815
AAUSAT CUBESAT 2 27 Mar 08:54:14 08:57:22 21° 95° (E) 09:00:30 437.432
BEESAT 2 27 Mar 08:59:12 09:03:16 89° 263° (W) 09:07:18 435.950
PRISM 27 Mar 09:08:51 09:10:33 12° 65° (ENE) 09:12:15 437.425
CUBEBUG 2 27 Mar 09:08:57 09:13:09 45° 99° (E) 09:17:12 437.445
SEEDS 27 Mar 09:11:01 09:15:12 75° 101° (E) 09:19:24 437.485
CUTE-I 27 Mar 09:13:07 09:16:24 17° 296° (WNW) 09:19:41 437.470
ZACube-1 27 Mar 09:14:14 09:16:54 16° 93° (E) 09:19:31 437.345
CUTE 1.7 + AOD 2 27 Mar 09:19:18 09:23:25 54° 285° (WNW) 09:27:32 437.475
JUGNU 27 Mar 09:21:56 09:25:12 15° 176° (S) 09:28:27 437.505
AO-73 27 Mar 09:41:20 09:45:04 31° 97° (E) 09:48:44 145.935
TIGRISAT 27 Mar 09:58:01 10:01:43 24° 69° (ENE) 10:05:24 435.000
HO-68 27 Mar 09:59:59 10:06:39 43° 293° (WNW) 10:13:19 435.675
PCSat 27 Mar 10:04:33 10:09:54 69° 114° (ESE) 10:15:18 145.827
UNISAT 6 27 Mar 10:07:53 10:12:03 32° 71° (ENE) 10:16:11 437.425
DELFI C3 27 Mar 10:07:56 10:10:10 14° 93° (E) 10:12:24 145.870
UWE-3 27 Mar 10:10:07 10:14:18 55° 285° (WNW) 10:18:23 435.000/436.395/437.385
YUBILEINY 27 Mar 10:18:00 10:24:36 23° 291° (WNW) 10:31:13 435.215
AAUSAT CUBESAT 2 27 Mar 10:29:18 10:32:46 27° 289° (WNW) 10:36:16 437.432
FO-29 27 Mar 10:32:44 10:40:07 48° 70° (ENE) 10:47:07 435.910
Oscar 11 27 Mar 10:40:12 10:44:26 58° 285° (WNW) 10:48:39 .
PRISM 27 Mar 10:41:30 10:45:23 46° 260° (W) 10:49:19 437.425
CUBEBUG 2 27 Mar 10:47:04 10:49:18 14° 294° (WNW) 10:51:30 437.445
ZACube-1 27 Mar 10:49:29 10:53:16 33° 288° (WNW) 10:56:59 437.345
JUGNU 27 Mar 11:10:20 11:13:25 14° 186° (S) 11:16:29 437.505
AIST 2D 27 Mar 11:12:50 11:15:05 16° 70° (ENE) 11:17:19 435.315
AO-73 27 Mar 11:18:11 11:21:02 18° 292° (WNW) 11:23:52 145.935
SRMSAT 27 Mar 11:26:30 11:29:38 14° 173° (S) 11:32:46 437.500
LO-87 27 Mar 11:28:33 11:30:22 13° 93° (E) 11:32:09 145.935 - 145.965
TIGRISAT 27 Mar 11:34:03 11:38:12 31° 263° (W) 11:42:20 435.000
DELFI C3 27 Mar 11:41:24 11:45:02 34° 287° (WNW) 11:48:40 145.870
UNISAT 6 27 Mar 11:45:05 11:48:43 22° 265° (W) 11:52:22 437.425
PCSat 27 Mar 11:50:21 11:53:48 17° 311° (NW) 11:57:17 145.827
NANOSAT C BR1 27 Mar 11:58:59 12:02:52 35° 72° (ENE) 12:06:46 145.865
RS-15 27 Mar 12:02:30 12:12:33 34° 104° (ESE) 12:22:53 29.354- 29.394
EO-79 27 Mar 12:03:54 12:07:58 45° 73° (ENE) 12:12:03 145.935-145.965
FO-29 27 Mar 12:18:13 12:25:07 33° 264° (W) 12:31:45 435.910
POLYITAN 1 27 Mar 12:32:03 12:36:20 82° 259° (W) 12:40:39 437.675
QB50P2 27 Mar 12:36:47 12:41:01 65° 259° (W) 12:45:17 145.880/145.840
VELOX 1 27 Mar 12:40:24 12:42:59 15° 93° (E) 12:45:33 145.980
AIST 2D 27 Mar 12:45:10 12:48:05 24° 264° (W) 12:51:01 435.315
DUCHIFAT 1 27 Mar 12:47:37 12:51:49 65° 259° (WSW) 12:56:04 145.980
BUGSAT 1 27 Mar 13:00:10 13:04:17 53° 74° (ENE) 13:08:26 437.445
LO-87 27 Mar 13:00:37 13:03:52 30° 287° (WNW) 13:07:05 145.935 - 145.965
ESTCUBE 1 27 Mar 13:06:35 13:11:05 73° 285° (WNW) 13:15:35 437.505/2401.250
SRMSAT 27 Mar 13:14:35 13:18:02 16° 183° (S) 13:21:28 437.500
SPROUT 27 Mar 13:16:54 13:20:49 34° 97° (E) 13:24:41 437.525
Oscar 19 27 Mar 13:25:37 13:30:07 32° 69° (ENE) 13:34:38 437.125/150
NANOSAT C BR1 27 Mar 13:35:58 13:38:40 16° 266° (W) 13:41:22 145.865
EO-79 27 Mar 13:41:55 13:43:55 13° 268° (W) 13:45:55 145.935-145.965
Gurwin Techsat 1B 27 Mar 13:47:14 13:51:47 30° 69° (ENE) 13:56:22 435.225
DX 1 27 Mar 13:49:27 13:53:30 35° 98° (E) 13:57:31 434.975-435.025
50 SAT 27 Mar 13:51:42 13:55:12 69° 101° (ESE) 13:58:41 437.505
NO-84 27 Mar 14:00:16 14:02:49 21° 39° (NE) 14:05:29 435.350 FM
AO-7 27 Mar 14:04:25 14:08:19 14° 51° (NE) 14:12:13 .
RS-15 27 Mar 14:12:15 14:24:08 67° 304° (NW) 14:36:29 29.354- 29.394
VELOX 1 27 Mar 14:15:22 14:19:36 42° 287° (WNW) 14:23:47 145.980
UKube-1 27 Mar 14:27:25 14:31:45 70° 102° (ESE) 14:36:03 .
BUGSAT 1 27 Mar 14:38:57 14:39:55 11° 269° (W) 14:40:53 437.445
SPROUT 27 Mar 14:53:34 14:56:26 18° 292° (WNW) 14:59:17 437.525
SRMSAT 27 Mar 15:05:09 15:06:23 11° 193° (SSW) 15:07:38 437.500
Oscar 19 27 Mar 15:05:11 15:09:24 26° 264° (W) 15:13:39 437.125/150
SO-50 27 Mar 15:12:26 15:17:06 81° 120° (ESE) 15:21:43 436.795
ITUPSAT 1 27 Mar 15:12:47 15:15:14 14° 93° (E) 15:17:41 437.325
ITAMSAT 1 27 Mar 15:14:28 15:19:07 33° 69° (ENE) 15:23:45 435.822/435.867
DX 1 27 Mar 15:26:24 15:29:23 18° 293° (WNW) 15:32:21 434.975-435.025
Gurwin Techsat 1B 27 Mar 15:27:01 15:31:37 30° 263° (W) 15:36:16 435.225
NO-84 27 Mar 15:37:23 15:40:22 30° 231° (SW) 15:43:34 435.350 FM
AO-7 27 Mar 15:51:22 15:59:38 71° 69° (ENE) 16:07:53 .
O/OREOS (USA 219) 27 Mar 16:13:07 16:14:32 11° 98° (E) 16:15:58 437.305
